[[{"header":{"parameterUnit":"m.s-1","parameterCategory":1,"la1":30.2991,"la2":30.254,"lo1":-89.0895,"lo2":-89.0444,"dy":0.0017,"dx":0.0017,"nx":28,"ny":28,"refTime":"2025-07-15T09:00:00:Z","depth":0,"parameterNumber":2,"parameterNumberName":"U-component_of_WINDS"},"data":[0,0,0,0,0,0,0,0,0,0,0,0,0,0,0,0,0,0,0,0,0,0,0,0,0,0,0,0,0,0,0,0,0,0,0,0,0,0,0,0,0,0,0,0,0,0,0,0,0,0,0,0,0,0,0,0,0,0,-2.7551,-2.7552,0,-2.7648,-2.7649,-2.7651,-2.7646,-2.7645,-2.7643,-2.7642,-2.7742,-2.7746,-2.775,0,0,0,0,0,0,0,0,0,0,0,0,0,-2.7365,-2.7368,-2.7551,-2.7552,-2.7553,-2.7648,-2.765,-2.7651,-2.7646,-2.7645,-2.7643,-2.7641,-2.7741,-2.7746,-2.7751,0,0,0,0,0,0,0,0,0,0,0,0,0,-2.7452,-2.7369,-2.7551,-2.7563,-2.7565,-2.7648,-2.765,-2.7651,-2.7647,-2.7645,-2.7642,-2.7641,-2.774,-2.7745,-2.7751,-2.783,0,0,-2.7769,-2.7772,0,0,0,0,0,0,0,0,-2.7447,-2.7459,-2.756,-2.7562,-2.7564,-2.7633,-2.7621,-2.7711,-2.7647,-2.7616,-2.7642,-2.764,-2.7708,-2.7716,-2.7739,-2.7834,-2.7839,-2.777,-2.7774,-2.7776,-2.7778,0,0,0,0,0,0,0,-2.7441,-2.7455,-2.7589,-2.7561,-2.7564,-2.7564,-2.7574,-2.7638,-2.7672,-2.7618,-2.7618,-2.763,-2.7709,-2.7733,-2.7741,-2.784,-2.777,-2.7775,-2.7779,-2.7781,-2.8009,-2.8011,0,0,0,0,0,0,-2.7432,-2.745,-2.7586,-2.7592,-2.7499,-2.7569,-2.758,-2.7613,-2.7671,-2.7678,-2.7631,-2.7629,-2.7724,-2.7734,-2.7745,-2.7843,-2.7776,-2.7782,-2.7785,-2.8006,-2.8009,-2.8012,0,0,0,0,0,0,-2.7428,-2.7444,-2.7582,-2.7521,-2.7539,-2.7575,-2.7611,-2.7616,-2.7641,-2.7681,-2.7688,-2.765,-2.7723,-2.7737,-2.7809,-2.7846,-2.7784,-2.779,-2.8003,-2.8007,-2.8011,-2.8038,0,0,0,0,0,0,-2.7423,-2.7443,-2.7472,-2.7522,-2.7542,-2.7644,-2.7613,-2.7619,-2.7651,-2.7649,-2.77,-2.7707,-2.7722,-2.7801,-2.7815,-2.7853,-2.7794,-2.8,-2.8005,-2.801,-2.8034,-2.8042,-2.805,0,0,0,0,0,-2.7416,-2.7475,-2.7473,-2.749,-2.7579,-2.7646,-2.7658,-2.7674,-2.7654,-2.7684,-2.7711,-2.7705,-2.784,-2.7808,-2.7825,-2.7865,-2.7998,-2.8004,-2.8009,-2.8031,-2.8041,-2.8049,0,0,0,0,0,0,-2.7428,-2.7482,-2.748,-2.7557,-2.7597,-2.7645,-2.7684,-2.7684,-2.7731,-2.7727,-2.7745,-2.7757,-2.7831,-2.7855,-2.7819,-2.7946,-2.7917,-2.7926,-2.7927,-2.7937,-2.7945,-2.7938,-2.7799,0,0,0,0,0,-2.7439,-2.7489,-2.7533,-2.7597,-2.7617,-2.7647,-2.7677,-2.7687,-2.7729,-2.7746,-2.7778,-2.782,-2.7872,-2.7906,-2.7956,-2.8038,-2.8051,-2.8074,-2.8082,-2.8088,-2.8096,-2.8145,-2.8157,-2.803,-2.803,-2.803,0,0,-2.7463,-2.7499,-2.7529,-2.76,-2.7632,-2.7685,-2.7661,-2.7717,-2.7757,-2.7754,-2.7826,-2.7851,-2.79,-2.7979,-2.8015,-2.8001,-2.8134,-2.8095,-2.81,-2.8104,-2.8152,-2.8164,-2.8174,-2.8034,-2.8034,-2.8033,0,0,-2.7534,-2.7565,-2.7623,-2.7657,-2.7707,-2.7727,-2.7741,-2.779,-2.7807,-2.7879,-2.788,-2.7928,-2.8016,-2.8052,-2.8082,-2.8171,-2.8169,-2.8187,-2.8227,-2.8274,-2.8284,-2.8293,-2.8327,-2.8339,-2.8194,-2.8194,-2.8194,0,-2.7558,-2.7636,-2.7653,-2.771,-2.7743,-2.7744,-2.7804,-2.7836,-2.79,-2.7923,-2.7907,-2.8021,-2.8053,-2.8142,-2.8164,-2.8187,-2.8206,-2.8181,-2.8281,-2.829,-2.8299,-2.8332,-2.8345,-2.8196,-2.8196,-2.8196,-2.8196,0,-2.7664,-2.7719,-2.776,-2.7823,-2.786,-2.7918,-2.7945,-2.7981,-2.7988,-2.8011,-2.8087,-2.8126,-2.8186,-2.8207,-2.8214,-2.8299,-2.8289,-2.8277,-2.8248,-2.8313,-2.8344,-2.8357,-2.8199,-2.8199,-2.8198,-2.8197,0,0,-2.7743,-2.7817,-2.7832,-2.7862,-2.7919,-2.7962,-2.8022,-2.808,-2.8112,-2.8157,-2.8209,-2.8286,-2.8276,-2.831,-2.8322,-2.8363,-2.8435,-2.8346,-2.8348,-2.8363,-2.8534,-2.8544,-2.8558,-2.8434,-2.8436,-2.8438,-2.8531,0,-2.7821,-2.7927,-2.7945,-2.8038,-2.8091,-2.8095,-2.8148,-2.8189,-2.8213,-2.8262,-2.8288,-2.8344,-2.8325,-2.8346,-2.8388,-2.8417,-2.847,-2.8411,-2.8485,-2.8487,-2.8473,-2.8574,-2.8583,-2.8668,-2.8543,-2.8545,-2.8546,0,-2.7926,-2.7975,-2.8073,-2.8127,-2.815,-2.8196,-2.8254,-2.83,-2.8349,-2.8363,-2.8403,-2.8411,-2.8476,-2.8444,-2.8535,-2.8494,-2.8526,-2.8546,-2.8549,-2.8557,-2.8521,-2.8586,-2.8696,-2.8709,-2.8565,-2.8564,-2.8562,0,-2.7976,-2.8067,-2.8138,-2.8164,-2.8227,-2.8261,-2.8289,-2.8335,-2.8371,-2.8422,-2.8445,-2.8503,-2.8535,-2.858,-2.8604,-2.8578,-2.8694,-2.8663,-2.871,-2.871,-2.8734,-2.8732,-2.8852,-2.8752,-2.8752,-2.8752,-2.8752,0,-2.8062,-2.8123,-2.8162,-2.8206,-2.8276,-2.8298,-2.8366,-2.8394,-2.8436,-2.8487,-2.8494,-2.8542,-2.857,-2.8623,-2.8642,-2.8716,-2.873,-2.8745,-2.875,-2.8745,-2.8744,-2.8767,-2.8762,-2.8755,-2.8755,-2.8754,-2.8753,0,-2.813,-2.8158,-2.8237,-2.8292,-2.8307,-2.8356,-2.8404,-2.8448,-2.8473,-2.8538,-2.8554,-2.8593,-2.8656,-2.8685,-2.8762,-2.8775,-2.8861,-2.886,-2.8844,-2.8846,-2.8892,-2.8888,-2.9031,-2.9052,-2.8937,-2.8938,-2.8939,0,-2.8183,-2.823,-2.8291,-2.8326,-2.8355,-2.8411,-2.8448,-2.8473,-2.8511,-2.8573,-2.861,-2.8674,-2.8726,-2.8827,-2.8863,-2.8923,-2.8925,-2.8972,-2.8934,-2.893,-2.8929,-2.8926,-2.8932,-2.8978,-2.8979,-2.898,-2.8981,0,-2.8276,-2.8289,-2.8342,-2.8401,-2.8445,-2.8493,-2.854,-2.8568,-2.8601,-2.8644,-2.8709,-2.8749,-2.883,-2.8894,-2.8957,-2.8988,-2.8991,-2.8993,-2.9007,-2.9003,-2.8993,-2.9002,-2.8864,-2.8989,-2.8988,-2.8988,-2.8987,-2.8987,-2.834,-2.8383,-2.8434,-2.8493,-2.8532,-2.8576,-2.8622,-2.8653,-2.8707,-2.8775,-2.8787,-2.8857,-2.8908,-2.8994,-2.9027,-2.9083,-2.9072,-2.9092,-2.9098,-2.9103,-2.9107,-2.8983,-2.9095,-2.9094,-2.9094,-2.9094,-2.9094,0,-2.8435,-2.8468,-2.8523,-2.8589,-2.8637,-2.8636,-2.8689,-2.873,-2.8791,-2.8839,-2.8891,-2.8967,-2.903,-2.9073,-2.9137,-2.9174,-2.9178,-2.9191,-2.9189,-2.9197,-2.9112,-2.9094,-2.9187,-2.9187,-2.9187,-2.9187,-2.9187,-2.9187,-2.849,-2.8564,-2.8584,-2.8679,-2.8712,-2.8781,-2.8812,-2.8854,-2.8892,-2.8977,-2.903,-2.9057,-2.9104,-2.9173,-2.9232,-2.9243,-2.9267,-2.9281,-2.9292,-2.9212,-2.9202,-2.9193,-2.9176,-2.9285,-2.9285,-2.9372,-2.9373,-2.9373]},{"header":{"parameterUnit":"m.s-1","parameterCategory":1,"la1":30.2991,"la2":30.254,"lo1":-89.0895,"lo2":-89.0444,"dy":0.0017,"dx":0.0017,"nx":28,"ny":28,"refTime":"2025-07-15T09:00:00:Z","depth":0,"parameterNumber":3,"parameterNumberName":"V-component_of_WINDS"},"data":[0,0,0,0,0,0,0,0,0,0,0,0,0,0,0,0,0,0,0,0,0,0,0,0,0,0,0,0,0,0,0,0,0,0,0,0,0,0,0,0,0,0,0,0,0,0,0,0,0,0,0,0,0,0,0,0,0,0,2.7548,2.7552,0,2.7915,2.792,2.7924,2.8065,2.8063,2.8062,2.8061,2.8441,2.8452,2.8463,0,0,0,0,0,0,0,0,0,0,0,0,0,2.697,2.6979,2.7547,2.7552,2.7557,2.7915,2.792,2.7925,2.8065,2.8063,2.8062,2.8061,2.8437,2.845,2.8464,0,0,0,0,0,0,0,0,0,0,0,0,0,2.7267,2.6983,2.7547,2.767,2.7684,2.7914,2.792,2.7926,2.8065,2.8063,2.8062,2.806,2.8433,2.8449,2.8465,2.8601,0,0,2.8516,2.8524,0,0,0,0,0,0,0,0,2.725,2.7288,2.7647,2.7662,2.7678,2.7942,2.7855,2.8152,2.8065,2.7921,2.8061,2.8059,2.8276,2.8306,2.8379,2.8618,2.8635,2.8518,2.8528,2.8535,2.854,0,0,0,0,0,0,0,2.7229,2.7273,2.7693,2.7652,2.7671,2.7707,2.7748,2.7912,2.8103,2.7933,2.7944,2.7986,2.8285,2.8362,2.8388,2.864,2.8517,2.8532,2.8542,2.8549,2.9009,2.9011,0,0,0,0,0,0,2.7188,2.7255,2.7682,2.7704,2.7456,2.7719,2.7764,2.7859,2.8102,2.8137,2.7987,2.7991,2.8334,2.8369,2.8402,2.8576,2.8535,2.8551,2.856,2.9007,2.901,2.9012,0,0,0,0,0,0,2.7175,2.7225,2.7667,2.7483,2.7542,2.7731,2.7836,2.7867,2.7945,2.8142,2.8177,2.803,2.8335,2.8379,2.855,2.8591,2.8558,2.8573,2.9004,2.9008,2.9011,2.8924,0,0,0,0,0,0,2.7158,2.7219,2.7272,2.7483,2.7551,2.7807,2.7839,2.7876,2.7973,2.7982,2.8192,2.8226,2.8337,2.8524,2.8566,2.8613,2.8586,2.9002,2.9006,2.901,2.8924,2.8924,2.8923,0,0,0,0,0,2.7137,2.7233,2.7273,2.7324,2.7621,2.7809,2.7848,2.7973,2.7976,2.803,2.8157,2.8219,2.858,2.8541,2.8589,2.8642,2.9,2.9005,2.901,2.8924,2.8924,2.8923,0,0,0,0,0,0,2.7023,2.7263,2.731,2.7478,2.7622,2.7832,2.7905,2.7969,2.8116,2.8118,2.8268,2.8314,2.8473,2.8575,2.8527,2.8785,2.8794,2.8809,2.8712,2.8714,2.8714,2.8685,2.86,0,0,0,0,0,2.7017,2.7149,2.7352,2.7481,2.755,2.7715,2.7802,2.7885,2.8041,2.8102,2.8242,2.8391,2.8538,2.8632,2.8779,2.894,2.8987,2.9,2.9,2.8999,2.9009,2.9102,2.9109,2.9029,2.9029,2.9029,0,0,2.7007,2.7154,2.7229,2.7461,2.7583,2.7716,2.7765,2.7905,2.8006,2.8124,2.8293,2.8401,2.8578,2.8744,2.8824,2.8834,2.9043,2.9005,2.9003,2.9015,2.9108,2.9115,2.9122,2.9032,2.9032,2.9031,0,0,2.7056,2.7181,2.7301,2.7421,2.7604,2.7713,2.7741,2.7943,2.8018,2.819,2.8282,2.8405,2.8655,2.8777,2.8871,2.8967,2.9029,2.901,2.9009,2.9097,2.9104,2.911,2.9143,2.9153,2.9021,2.9021,2.902,0,2.702,2.7224,2.7355,2.749,2.7589,2.7702,2.7825,2.7936,2.8157,2.8223,2.8231,2.8547,2.8674,2.887,2.8893,2.8966,2.9004,2.8986,2.9092,2.91,2.9108,2.9141,2.9153,2.9017,2.9017,2.9018,2.9018,0,2.7171,2.7311,2.7386,2.7595,2.7704,2.7832,2.7983,2.8077,2.8152,2.826,2.8434,2.859,2.8769,2.8823,2.8897,2.9029,2.903,2.9063,2.9075,2.9109,2.9143,2.9157,2.9012,2.9013,2.9014,2.9015,0,0,2.7157,2.7437,2.7462,2.7558,2.7768,2.788,2.8013,2.8188,2.8265,2.8415,2.853,2.8739,2.8771,2.8878,2.8968,2.9045,2.9109,2.907,2.9076,2.9071,2.9264,2.9236,2.9249,2.9153,2.9156,2.9158,2.9249,0,2.7233,2.7475,2.7596,2.7786,2.7917,2.8026,2.8143,2.8284,2.8389,2.8517,2.8634,2.8779,2.8811,2.8876,2.8957,2.9084,2.915,2.908,2.9262,2.9266,2.9212,2.9267,2.9239,2.9316,2.9263,2.9265,2.9267,0,2.7354,2.75,2.7702,2.7896,2.7956,2.8058,2.8227,2.8348,2.8511,2.8582,2.8701,2.8789,2.8934,2.8936,2.9138,2.9087,2.9169,2.9243,2.9249,2.927,2.9267,2.9287,2.9344,2.9355,2.9289,2.9287,2.9286,0,2.7321,2.757,2.7723,2.7802,2.8032,2.8101,2.8201,2.8362,2.8459,2.8608,2.8673,2.8837,2.8926,2.9052,2.9181,2.9171,2.9371,2.9384,2.9434,2.943,2.947,2.9465,2.9539,2.9524,2.9524,2.9524,2.9524,0,2.7392,2.7511,2.7711,2.7805,2.7942,2.8081,2.8213,2.8321,2.8464,2.8581,2.8687,2.8795,2.896,2.9089,2.9192,2.9343,2.9383,2.9445,2.947,2.9435,2.9427,2.949,2.9487,2.9527,2.9526,2.9526,2.9525,0,2.7379,2.7517,2.7691,2.7895,2.7949,2.804,2.8216,2.8311,2.8422,2.8569,2.8611,2.8785,2.8942,2.9084,2.9293,2.9363,2.9516,2.9549,2.946,2.9474,2.9516,2.9509,2.9631,2.9654,2.9624,2.9624,2.9624,0,2.7414,2.7508,2.7721,2.7807,2.7904,2.8041,2.814,2.8281,2.8381,2.8573,2.8646,2.8811,2.895,2.9196,2.9341,2.9502,2.9539,2.9571,2.9564,2.9525,2.9538,2.953,2.954,2.9569,2.9568,2.9568,2.9568,0,2.7462,2.7525,2.7664,2.7826,2.7941,2.8076,2.8215,2.8279,2.8447,2.8553,2.8714,2.8822,2.9035,2.9197,2.9374,2.9478,2.9551,2.9569,2.9589,2.9553,2.9497,2.9527,2.9456,2.9565,2.9566,2.9566,2.9566,2.9566,2.7474,2.7562,2.7725,2.7876,2.7995,2.8121,2.8221,2.8343,2.848,2.8663,2.8739,2.8903,2.9065,2.931,2.9413,2.9544,2.9558,2.9587,2.9594,2.9599,2.9592,2.9476,2.9577,2.9577,2.9577,2.9578,2.9578,0,2.7525,2.7636,2.7773,2.7963,2.8081,2.8139,2.8295,2.839,2.8533,2.8677,2.8811,2.8997,2.9155,2.9312,2.9479,2.9553,2.9591,2.9592,2.9587,2.961,2.957,2.9536,2.9559,2.9559,2.9559,2.9559,2.9559,2.9559,2.7566,2.7718,2.7801,2.8013,2.8124,2.8284,2.8368,2.8486,2.8602,2.8804,2.8935,2.9036,2.9186,2.9365,2.9512,2.9555,2.9611,2.9602,2.9654,2.9613,2.9613,2.9613,2.9581,2.9614,2.9614,2.9683,2.9684,2.9684]}]]